Simultaneous Nadir Overpasses (SNOs) Predictions

Prediction of SNOs between GOES-17 and LANDSAT-8 Satellite Orbit:

Table of predicted SNOs for the next 14.0 days since TLE Epoch: 12/17/2022
Index Date Time (GOES-17) GOES-17 Lat,Lon LANDSAT-8 Lat,Lon Distance(km) Time Diff (sec)
1 12/17/2022 19:22:56 -0.00,-137.34 -0.05,-137.21 14.54 80
2 12/19/2022 19:10:44 -0.01,-137.33 -0.68,-134.25 350.47 80
3 12/20/2022 07:32:07 0.01,-137.32 -0.41,-139.44 240.72 80
4 12/22/2022 07:19:53 0.01,-137.30 0.17,-136.47 94.25 80
5 12/22/2022 19:38:28 -0.01,-137.30 0.92,-141.62 492.05 80
6 12/24/2022 07:07:40 0.00,-137.27 0.83,-133.51 428.43 80
7 12/24/2022 19:26:14 0.00,-137.27 0.32,-138.65 158.00 80
8 12/26/2022 19:16:40 0.02,-137.24 -0.29,-135.69 175.90 80
9 12/27/2022 07:35:24 -0.02,-137.22 -0.79,-140.88 415.62 80
10 12/29/2022 07:23:10 -0.03,-137.19 -0.16,-137.91 82.01 80
